Retour au catalogue

IRIDIUM 151

ActifCommunicationsPO
NORAD 43074·PAYLOAD·🇺🇸 United States

Lancé Dec 23, 2017 depuis Vandenberg Space Force Base

Loading…

Prochains Passages (prochaines 24 heures)

TLE

FraisSource: CelesTrak SupGP

Époque: Sep 14, 2026, 20:31 UTC

1 43074C 17083E   26257.85520833  .00001223  00000+0  43717-3 0  2572
2 43074  86.3915 284.5738 0002236  93.4130 137.6702 14.34214963    16

Suivez IRIDIUM 151 en temps réel avec AllMySat

Download on the App Store